Hourly Weather Czyzowice

Today, 17 April, Saturday

Time Temperature Precipitation Wind Pressure Humidity
00:00 -1°C° 0.4 mm 4 mps 743 mmHg 99%
01:00 -1°C° 0.4 mm 4 mps 743 mmHg 99%
02:00 -1°C° 0.2 mm 4 mps 743 mmHg 99%
03:00 0°C° 0.2 mm 3 mps 743 mmHg 98%
04:00 +1°C° 0.2 mm 3 mps 743 mmHg 98%
05:00 +1°C° 0.1 mm 3 mps 743 mmHg 98%
06:00 +1°C° 0.1 mm 3 mps 743 mmHg 99%
07:00 +1°C° 0.1 mm 3 mps 743 mmHg 99%
08:00 +2°C° 0 mm 3 mps 743 mmHg 99%
09:00 +2°C° 0 mm 3 mps 743 mmHg 99%
10:00 +2°C° 0 mm 3 mps 744 mmHg 98%
11:00 +2°C° 0 mm 3 mps 744 mmHg 98%
12:00 +3°C° 0 mm 3 mps 744 mmHg 98%
13:00 +3°C° 0 mm 3 mps 744 mmHg 97%
14:00 +4°C° 0 mm 2 mps 744 mmHg 98%
15:00 +4°C° 0 mm 2 mps 744 mmHg 98%
16:00 +4°C° 0 mm 2 mps 744 mmHg 98%
17:00 +3°C° 0 mm 2 mps 744 mmHg 98%
18:00 +4°C° 0 mm 1 mps 744 mmHg 98%
19:00 +4°C° 0 mm 1 mps 744 mmHg 98%
20:00 +4°C° 0 mm 1 mps 744 mmHg 98%
21:00 +3°C° 0 mm 0 mps 744 mmHg 98%
22:00 +3°C° 0 mm 0 mps 744 mmHg 98%
23:00 +3°C° 0 mm 0 mps 744 mmHg 98%

Tomorrow, 18 April, Sunday

Time Temperature Precipitation Wind Pressure Humidity
00:00 +3°C° 0 mm 0 mps 744 mmHg 98%
01:00 +3°C° 0 mm 0 mps 744 mmHg 97%
02:00 +3°C° 0 mm 0 mps 744 mmHg 97%
03:00 +3°C° 0 mm 0 mps 744 mmHg 97%
04:00 +4°C° 0 mm 1 mps 743 mmHg 96%
05:00 +4°C° 0 mm 1 mps 743 mmHg 94%
06:00 +5°C° 0 mm 1 mps 744 mmHg 92%
07:00 +5°C° 0 mm 1 mps 744 mmHg 90%
08:00 +6°C° 0 mm 1 mps 743 mmHg 85%
09:00 +6°C° 0 mm 2 mps 743 mmHg 81%
10:00 +8°C° 0 mm 2 mps 743 mmHg 76%
11:00 +8°C° 0 mm 2 mps 743 mmHg 74%
12:00 +9°C° 0 mm 2 mps 743 mmHg 71%
13:00 +9°C° 0 mm 2 mps 743 mmHg 68%
14:00 +10°C° 0 mm 2 mps 743 mmHg 70%
15:00 +10°C° 0 mm 2 mps 743 mmHg 71%
16:00 +11°C° 0 mm 1 mps 742 mmHg 73%
17:00 +10°C° 0 mm 1 mps 742 mmHg 76%
18:00 +9°C° 0 mm 1 mps 743 mmHg 80%
19:00 +7°C° 0 mm 0 mps 743 mmHg 83%
20:00 +8°C° 0 mm 1 mps 743 mmHg 84%
21:00 +7°C° 0 mm 1 mps 743 mmHg 85%
22:00 +7°C° 0 mm 1 mps 743 mmHg 87%
23:00 +7°C° 0 mm 1 mps 742 mmHg 87%

Day after tomorrow, 19 April, Monday

Time Temperature Precipitation Wind Pressure Humidity
00:00 +7°C° 0 mm 1 mps 742 mmHg 88%
01:00 +5°C° 0 mm 2 mps 742 mmHg 88%
02:00 +7°C° 0 mm 1 mps 742 mmHg 88%
03:00 +7°C° 0 mm 1 mps 742 mmHg 89%
04:00 +7°C° 0 mm 1 mps 741 mmHg 89%
05:00 +7°C° 0.1 mm 1 mps 741 mmHg 89%
06:00 +8°C° 0.1 mm 1 mps 741 mmHg 89%
07:00 +8°C° 0.1 mm 1 mps 741 mmHg 89%
08:00 +8°C° 0.1 mm 2 mps 741 mmHg 84%
09:00 +9°C° 0.1 mm 3 mps 741 mmHg 79%
10:00 +10°C° 0.1 mm 4 mps 741 mmHg 74%
11:00 +11°C° 0.2 mm 4 mps 741 mmHg 71%
12:00 +12°C° 0.2 mm 5 mps 740 mmHg 69%
13:00 +12°C° 0.2 mm 5 mps 740 mmHg 66%
14:00 +12°C° 0.3 mm 5 mps 740 mmHg 70%
15:00 +11°C° 0.3 mm 4 mps 740 mmHg 73%
16:00 +11°C° 0.3 mm 4 mps 740 mmHg 77%
17:00 +10°C° 0.2 mm 3 mps 740 mmHg 80%
18:00 +9°C° 0.2 mm 2 mps 740 mmHg 83%
19:00 +9°C° 0.2 mm 1 mps 740 mmHg 86%
20:00 +7°C° 0 mm 2 mps 740 mmHg 88%
21:00 +7°C° 0 mm 2 mps 740 mmHg 89%
22:00 +6°C° 0 mm 2 mps 740 mmHg 91%
23:00 +6°C° 0 mm 2 mps 739 mmHg 92%

20 April, Tuesday

Time Temperature Precipitation Wind Pressure Humidity
00:00 +6°C° 0 mm 2 mps 739 mmHg 94%
01:00 +5°C° 0 mm 2 mps 739 mmHg 95%
02:00 +5°C° 0 mm 2 mps 739 mmHg 94%
03:00 +6°C° 0 mm 2 mps 739 mmHg 94%
04:00 +7°C° 0 mm 1 mps 739 mmHg 93%
05:00 +7°C° 0 mm 1 mps 739 mmHg 91%
06:00 +7°C° 0 mm 1 mps 739 mmHg 89%
07:00 +8°C° 0 mm 1 mps 739 mmHg 87%
08:00 +9°C° 0.1 mm 1 mps 739 mmHg 80%
09:00 +8°C° 0.1 mm 2 mps 739 mmHg 74%
10:00 +9°C° 0.1 mm 2 mps 739 mmHg 68%
11:00 +10°C° 0.1 mm 2 mps 738 mmHg 64%
12:00 +12°C° 0.1 mm 2 mps 738 mmHg 60%
13:00 +13°C° 0.1 mm 2 mps 738 mmHg 56%
14:00 +13°C° 0.1 mm 2 mps 737 mmHg 56%
15:00 +12°C° 0.1 mm 3 mps 737 mmHg 56%
16:00 +12°C° 0.1 mm 3 mps 737 mmHg 56%
17:00 +10°C° 0.1 mm 3 mps 737 mmHg 63%
18:00 +9°C° 0.1 mm 2 mps 737 mmHg 70%
19:00 +7°C° 0.1 mm 2 mps 737 mmHg 76%
20:00 +7°C° 0.1 mm 2 mps 737 mmHg 80%
21:00 +6°C° 0.1 mm 2 mps 737 mmHg 83%
22:00 +6°C° 0.1 mm 2 mps 737 mmHg 86%
23:00 +5°C° 0.1 mm 2 mps 737 mmHg 88%

21 April, Wednesday

Time Temperature Precipitation Wind Pressure Humidity
00:00 +5°C° 0.1 mm 2 mps 737 mmHg 89%
01:00 +5°C° 0.1 mm 2 mps 737 mmHg 90%
02:00 +4°C° 0 mm 3 mps 737 mmHg 90%
03:00 +4°C° 0 mm 3 mps 736 mmHg 90%
04:00 +4°C° 0 mm 3 mps 736 mmHg 90%
05:00 +5°C° 0.1 mm 3 mps 737 mmHg 89%
06:00 +5°C° 0.1 mm 3 mps 737 mmHg 88%
07:00 +6°C° 0.1 mm 4 mps 737 mmHg 87%
08:00 +7°C° 0.2 mm 4 mps 737 mmHg 79%
09:00 +8°C° 0.2 mm 4 mps 737 mmHg 71%
10:00 +9°C° 0.2 mm 5 mps 737 mmHg 63%
11:00 +11°C° 0.1 mm 4 mps 737 mmHg 60%
12:00 +12°C° 0.1 mm 4 mps 737 mmHg 56%
13:00 +12°C° 0.1 mm 4 mps 737 mmHg 53%
14:00 +13°C° 0 mm 3 mps 737 mmHg 52%
15:00 +13°C° 0 mm 3 mps 737 mmHg 51%
16:00 +14°C° 0 mm 2 mps 737 mmHg 50%
17:00 +13°C° 0 mm 2 mps 737 mmHg 54%
18:00 +12°C° 0 mm 1 mps 738 mmHg 58%
19:00 +10°C° 0 mm 1 mps 738 mmHg 63%
20:00 +10°C° 0 mm 1 mps 738 mmHg 66%
21:00 +8°C° 0 mm 2 mps 738 mmHg 70%
22:00 +7°C° 0 mm 2 mps 738 mmHg 74%
23:00 +7°C° 0 mm 2 mps 738 mmHg 77%

22 April, Thursday

Time Temperature Precipitation Wind Pressure Humidity
00:00 +6°C° 0 mm 2 mps 738 mmHg 80%
01:00 +7°C° 0 mm 1 mps 738 mmHg 83%
02:00 +7°C° 0 mm 1 mps 738 mmHg 84%
03:00 +6°C° 0 mm 1 mps 738 mmHg 85%
04:00 +5°C° 0 mm 2 mps 738 mmHg 87%
05:00 +7°C° 0 mm 2 mps 739 mmHg 82%
06:00 +8°C° 0 mm 2 mps 739 mmHg 78%
07:00 +10°C° 0 mm 2 mps 739 mmHg 73%
08:00 +11°C° 0 mm 3 mps 739 mmHg 68%
09:00 +13°C° 0 mm 3 mps 739 mmHg 62%
10:00 +16°C° 0 mm 3 mps 740 mmHg 57%
11:00 +17°C° 0.1 mm 3 mps 739 mmHg 54%
12:00 +18°C° 0.1 mm 4 mps 739 mmHg 52%
13:00 +18°C° 0.1 mm 4 mps 739 mmHg 50%
14:00 +18°C° 0.4 mm 4 mps 739 mmHg 54%
15:00 +17°C° 0.4 mm 3 mps 739 mmHg 57%
16:00 +17°C° 0.4 mm 3 mps 739 mmHg 61%
17:00 +14°C° 0.3 mm 3 mps 739 mmHg 68%
18:00 +13°C° 0.3 mm 3 mps 739 mmHg 74%
19:00 +12°C° 0.3 mm 2 mps 739 mmHg 80%
20:00 +10°C° 0 mm 2 mps 739 mmHg 83%
21:00 +9°C° 0 mm 3 mps 740 mmHg 86%
22:00 +9°C° 0 mm 3 mps 740 mmHg 88%
23:00 +8°C° 0 mm 2 mps 740 mmHg 90%
Show more